Temperature
19 19 18 17 17 16 16 16 16 16 15 14 14 13 13 13 13 12 12 12 11 11 10 10 10 9 9 9 9 9 9 9 8 8 8 9 9 8 8 8 8 8 8
19 18 18 17 17 17 17 17 17 16 16 16 16 16 14 13 12 12 12 12 12 11 11 10 10 10 9 9 9 9 9 9 9 8 8 8 8 9 9 8 8 8 8
19 19 18 17 17 17 17 17 17 17 17 16 15 14 13 12 12 12 12 12 12 11 11 10 10 10 9 9 9 9 9 9 9 8 8 8 9 8 8 8 8 8 7
19 19 18 18 17 18 18 18 18 17 17 16 15 14 14 14 15 14 13 12 12 11 11 10 10 10 10 9 9 9 9 9 9 9 8 8 8 8 8 8 8 8 8
18 18 18 18 18 19 18 18 18 17 17 16 16 15 15 15 14 13 12 12 12 11 11 10 10 10 10 10 9 9 9 9 9 9 9 8 8 8 8 8 8 8 8
18 18 18 18 18 18 18 18 18 17 17 16 16 16 16 15 13 13 12 12 12 11 11 11 10 10 10 10 10 9 9 9 9 9 9 9 8 8 8 8 7 7 7
18 18 18 18 18 18 18 18 18 18 17 17 16 16 16 15 14 14 13 13 12 12 12 11 11 10 10 10 10 9 9 9 9 9 9 9 8 8 8 8 7 7 7
18 18 18 18 18 18 18 18 18 18 18 17 17 16 16 14 14 14 13 13 13 13 13 12 11 11 10 10 10 9 9 9 9 9 9 9 9 8 8 8 7 6 6
17 17 17 17 18 18 18 18 18 18 18 17 17 16 15 15 15 14 13 13 13 12 12 12 11 11 10 10 10 9 9 9 9 9 9 9 8 8 8 8 7 6 6
16 16 17 17 17 18 18 18 18 18 18 17 17 16 16 15 14 14 13 13 12 12 12 11 11 11 10 10 10 10 9 9 9 9 9 8 8 8 8 7 7 6 6
16 16 16 17 17 17 17 17 17 17 17 17 16 16 15 14 14 13 13 12 12 12 11 11 11 11 10 10 10 9 9 9 9 9 9 8 8 8 8 7 7 6 6
15 15 16 16 16 17 16 17 17 17 17 17 16 16 15 14 13 13 13 12 12 11 11 11 11 10 10 10 10 9 9 9 9 9 8 8 8 8 7 7 6 6 5
14 14 15 15 16 16 16 16 16 16 16 16 16 15 15 14 14 13 12 12 11 11 11 11 10 10 10 10 10 9 9 9 9 8 8 8 8 7 7 7 6 6 5
14 14 14 14 15 16 16 16 16 16 16 15 15 15 14 14 13 12 12 11 11 11 10 10 10 10 10 9 9 9 9 9 8 8 8 7 7 7 7 6 5 5 4
13 13 14 14 15 15 15 15 15 15 15 15 15 14 14 13 12 12 11 11 11 10 10 10 10 9 9 9 9 9 8 8 8 8 7 7 7 6 6 5 5 4 4
12 13 13 14 15 15 15 15 15 15 15 15 14 14 13 12 12 12 11 10 10 10 10 9 9 9 9 9 9 8 8 8 8 7 7 7 6 6 5 5 4 4 3
12 12 13 14 15 15 15 15 15 15 14 14 14 13 12 12 11 11 11 10 10 10 9 9 9 9 9 8 8 8 8 7 7 7 7 6 6 5 4 4 3 3 2
12 13 13 14 14 15 15 15 15 14 14 14 13 13 12 12 11 11 10 10 10 9 9 9 8 8 8 8 8 7 7 7 6 6 6 5 5 4 4 3 3 2 2
13 13 13 14 14 14 15 15 14 14 14 13 13 12 12 11 11 10 10 10 9 9 8 8 8 8 8 8 7 7 7 6 6 6 5 5 4 4 3 2 2 1 1
12 13 13 14 14 14 14 14 14 14 14 14 13 12 12 11 11 10 10 9 9 8 8 8 7 7 7 7 7 6 6 5 5 5 4 4 3 3 2 2 1 0 -0
12 13 13 14 14 14 14 14 14 14 14 13 13 12 11 10 10 9 9 9 8 8 7 7 7 7 7 6 6 6 5 5 4 4 3 3 3 2 1 1 -0 -1 -1
11 12 13 13 14 14 14 14 14 14 13 13 12 11 10 10 9 9 8 8 8 7 7 7 6 6 6 6 5 5 5 4 4 3 3 2 2 1 0 -0 -1 -2 -2
10 11 12 13 13 14 14 14 14 13 13 12 11 10 10 9 9 8 8 7 7 7 7 6 6 6 5 5 5 4 4 3 3 2 2 1 1 0 -1 -1 -2 -2 -3
9 11 11 12 13 13 13 13 13 13 12 11 10 10 9 8 8 7 7 7 6 6 6 6 5 5 5 4 4 3 3 3 2 2 1 0 -0 -1 -2 -2 -3 -3 -4
9 10 11 12 12 12 12 13 13 12 11 11 10 9 8 8 7 7 6 6 6 6 6 5 5 5 4 4 3 3 2 2 1 1 0 -1 -1 -2 -3 -3 -4 -4 -5
8 9 10 11 11 12 12 12 12 12 11 10 9 9 8 7 7 6 6 5 5 5 4 4 4 4 3 3 2 2 1 1 0 -0 -1 -2 -2 -3 -3 -4 -5 -5 -6
Wind_Speed
21 20 20 21 21 21 22 23 23 22 19 16 16 16 16 15 14 13 17 19 19 19 16 11 12 11 10 10 9 7 7 5 4 3 2 2 3 3 3 3 3 3 3
21 19 19 20 22 23 24 24 24 23 23 19 18 17 16 14 13 11 15 19 20 19 17 15 12 12 10 11 11 9 6 5 5 4 3 3 4 4 3 3 3 4 4
24 22 20 21 22 23 25 23 25 25 25 23 17 14 12 11 12 15 15 18 20 20 19 18 15 13 13 11 12 12 10 7 6 6 4 3 3 2 4 4 4 4 4
24 22 21 21 22 24 23 24 25 25 25 24 20 21 18 17 19 16 15 17 20 20 20 19 17 15 13 13 12 12 10 9 7 5 5 4 2 3 2 4 5 5 5
24 23 22 21 21 22 21 22 24 24 25 25 25 24 21 19 16 16 17 17 17 18 19 19 17 15 14 14 13 12 12 9 9 6 5 5 4 5 5 4 4 5 5
24 23 21 19 18 18 19 20 22 23 24 25 25 26 25 22 19 19 18 16 14 15 18 18 17 16 14 14 13 13 14 11 10 8 7 6 5 5 6 6 5 5 4
22 21 21 19 18 18 19 19 22 23 24 25 26 26 26 24 22 20 19 17 14 14 18 18 17 16 15 14 13 13 13 13 12 11 9 8 7 5 5 6 5 5 4
20 19 19 19 18 18 19 20 21 21 22 24 25 24 24 19 17 19 17 18 15 16 18 19 18 17 16 14 13 11 12 11 12 11 10 7 7 6 5 5 4 5 5
19 18 17 17 17 17 18 19 20 20 21 22 23 22 22 21 19 19 18 16 15 14 18 18 18 17 16 15 13 11 12 11 11 11 10 8 6 6 6 5 5 4 5
16 16 15 15 15 15 15 17 18 19 19 20 20 17 20 20 19 17 18 17 17 15 16 17 17 16 15 15 14 11 11 11 10 8 10 9 7 6 5 5 5 5 6
15 14 13 13 13 13 14 15 16 16 17 18 18 18 18 18 18 17 17 17 16 16 16 16 16 16 15 15 13 13 12 12 11 10 10 10 8 6 6 6 6 6 6
11 11 11 12 12 13 13 14 14 15 15 16 17 17 17 17 17 17 16 16 16 15 15 15 15 15 14 14 14 13 13 13 12 11 11 10 8 9 7 6 7 6 7
9 9 10 11 11 12 12 13 13 14 14 15 16 16 16 17 17 16 15 15 15 14 14 14 14 14 14 14 13 13 12 12 12 11 11 10 10 10 7 7 7 5 5
10 10 10 10 10 10 11 12 12 13 14 14 15 15 16 16 16 15 14 14 14 14 14 13 13 13 12 12 11 11 11 11 10 9 9 9 10 10 8 7 7 5 5
9 10 10 10 10 10 10 11 12 12 13 14 14 14 14 14 13 13 13 13 13 12 12 12 11 11 10 10 11 10 10 10 9 8 8 8 8 8 7 6 6 6 5
8 9 10 10 11 11 11 11 12 13 14 14 14 13 13 13 13 13 13 13 12 12 12 11 11 11 8 11 14 11 10 9 9 9 8 7 7 8 9 8 8 7 6
7 8 9 10 10 11 11 12 13 13 14 14 13 13 13 13 13 12 13 12 12 12 11 11 11 10 10 13 15 13 10 9 8 8 7 6 6 8 6 7 8 8 7
5 6 8 8 9 9 10 11 13 14 14 14 13 13 13 13 13 13 13 12 11 11 10 10 10 9 10 14 14 13 9 7 7 7 7 7 6 6 6 6 5 6 6
5 6 7 8 9 10 12 13 14 14 14 14 14 14 14 14 14 13 13 11 11 10 9 9 10 10 10 13 14 12 8 6 6 6 5 6 6 7 7 5 5 5 5
5 4 5 7 9 11 13 15 15 15 15 15 14 14 14 14 14 13 13 11 10 10 9 9 8 9 9 12 13 12 7 6 5 5 4 5 5 6 7 5 5 5 5
6 4 5 7 9 12 14 15 15 15 14 14 14 14 14 14 14 13 12 12 11 11 10 10 8 8 9 11 12 11 6 6 6 5 4 3 5 5 6 5 3 4 4
6 4 5 5 7 12 14 15 14 14 14 14 14 14 14 12 12 13 12 12 12 12 11 10 9 6 7 8 10 10 7 6 5 4 4 3 5 5 4 3 2 3 3
7 5 5 5 7 11 13 14 14 15 16 16 15 14 14 13 13 14 14 12 11 10 9 9 8 7 6 7 9 10 9 7 4 4 5 5 5 4 3 1 1 1 2
6 5 5 7 8 10 12 12 15 17 18 17 16 14 14 13 12 10 10 10 10 10 9 9 8 7 6 6 6 6 6 7 6 5 6 6 5 3 1 0 1 1 2
5 5 7 8 9 10 12 14 16 18 18 17 15 14 13 13 12 10 8 8 7 8 10 9 9 9 7 6 8 7 6 5 5 5 3 2 2 1 0 0 1 2 2
5 6 7 8 10 11 13 15 17 19 20 17 15 13 12 12 12 12 11 13 11 13 12 11 10 7 9 12 11 10 10 9 9 5 3 2 2 1 1 1 2 2 3
Wind_Direction
227 220 212 207 203 199 197 196 195 194 191 191 193 195 199 199 200 200 200 199 199 197 198 196 196 196 198 196 194 188 184 188 181 186 194 193 197 204 200 206 204 191 194
227 220 211 205 202 200 198 198 197 195 194 196 196 199 199 200 199 198 203 202 201 199 199 199 197 197 199 198 195 192 191 186 194 210 214 213 201 199 208 208 214 213 207
228 221 212 206 203 202 200 199 198 197 197 197 194 194 194 195 197 201 203 204 203 201 200 202 200 199 201 201 199 196 196 194 195 214 223 233 234 181 191 206 214 216 221
229 226 217 209 205 204 201 201 200 199 198 195 194 192 194 198 203 201 201 201 202 203 202 202 203 201 203 204 202 200 201 196 193 199 226 247 262 232 214 203 212 221 232
226 225 220 213 208 204 200 201 200 200 198 197 197 197 201 205 203 200 200 199 200 202 202 202 203 203 204 205 200 197 200 201 202 194 193 208 222 237 243 244 221 223 227
224 224 222 215 209 202 198 199 199 201 199 198 199 201 204 204 199 198 197 197 197 200 202 202 203 204 203 203 201 199 201 203 205 201 195 195 201 211 222 242 246 244 230
221 220 218 213 206 199 197 197 198 200 198 199 201 203 205 204 203 199 199 196 196 198 201 200 203 203 203 201 198 199 202 204 204 205 207 211 216 211 217 235 249 252 244
220 218 215 212 207 201 196 195 197 199 197 199 202 203 205 205 205 203 200 199 199 200 200 200 202 203 201 198 196 198 201 203 206 209 206 209 209 204 207 218 231 247 249
217 214 210 207 205 201 197 195 194 195 196 197 199 202 202 203 203 202 201 201 201 199 198 198 200 201 198 195 192 198 198 199 204 205 204 206 205 202 206 208 213 229 254
214 211 207 203 200 196 193 192 192 192 192 194 196 198 200 201 200 199 199 199 199 195 194 196 198 198 197 194 193 197 197 196 199 198 200 204 203 199 198 201 210 223 238
209 205 200 195 191 188 186 186 188 188 189 191 192 194 196 197 197 197 199 198 196 192 192 193 194 195 195 193 194 196 192 196 196 194 199 202 195 195 198 199 206 217 225
203 196 188 182 181 182 183 182 183 185 186 186 188 190 190 190 192 195 196 194 193 191 191 191 191 192 192 192 193 194 193 196 196 194 195 198 192 200 199 202 210 217 223
188 181 176 175 176 177 178 179 180 181 181 181 182 183 185 187 190 191 190 188 187 186 187 187 188 189 189 191 192 192 193 197 197 193 194 196 194 202 202 206 213 217 223
180 177 174 174 171 171 174 175 176 176 175 176 178 180 182 185 186 184 183 183 182 182 182 184 185 185 185 187 187 187 189 192 191 191 194 194 198 204 202 204 211 211 217
181 180 175 171 169 168 169 170 170 170 170 172 175 178 178 177 177 176 176 176 177 177 177 177 177 178 178 182 179 179 181 183 183 185 191 194 198 204 201 201 205 204 215
178 178 176 173 172 170 168 167 169 169 168 170 172 170 168 168 169 170 169 169 169 169 168 171 171 173 175 173 174 175 176 180 183 185 188 190 194 203 205 208 209 207 216
185 184 184 182 178 175 172 170 167 165 166 167 166 165 164 164 164 162 162 163 163 162 165 166 167 171 170 167 172 173 173 178 184 184 184 186 193 198 202 209 215 221 228
203 198 191 185 178 172 169 162 159 162 163 162 161 161 161 159 158 159 160 159 158 160 161 162 164 163 163 166 167 167 171 171 176 181 185 188 188 191 194 201 215 230 235
234 213 200 184 172 169 164 157 158 160 161 162 162 162 160 157 157 158 158 155 153 153 153 156 158 159 158 161 162 162 163 162 167 172 177 185 190 184 191 201 218 238 251
267 225 194 173 169 167 161 159 160 163 166 165 161 159 158 156 156 155 151 147 146 144 141 141 150 152 152 154 158 161 159 160 160 161 170 182 191 183 191 206 221 242 262
267 234 198 182 173 166 164 165 165 169 163 156 152 152 153 152 148 144 142 140 137 135 135 132 134 139 141 149 156 160 161 161 160 163 170 174 178 183 194 214 232 258 278
263 232 205 186 170 168 168 168 168 159 151 148 147 146 145 141 141 138 137 138 138 136 135 133 128 127 134 141 151 155 149 151 158 165 168 161 166 176 187 210 253 275 279
248 226 199 177 173 175 174 168 159 151 148 145 143 141 138 137 140 140 139 140 141 140 141 140 137 132 130 131 138 146 143 140 143 140 134 135 145 159 175 176 259 273 282
235 209 183 175 175 175 172 162 152 149 146 144 141 140 137 134 133 133 138 141 145 145 144 145 143 138 136 136 141 144 138 131 125 122 124 126 122 123 108 127 262 298 307
229 205 191 180 174 166 161 154 151 148 144 141 139 138 135 132 128 120 119 130 133 145 148 150 148 147 147 146 143 144 145 143 136 130 126 136 149 167 194 281 302 307 309
214 199 187 171 163 158 154 153 153 149 143 142 141 139 136 132 128 121 102 79 96 99 101 112 124 119 123 134 135 131 128 130 136 133 145 157 175 204 243 272 291 300 304
Height
1442 1445 1448 1452 1456 1460 1464 1469 1473 1478 1483 1487 1490 1494 1497 1501 1504 1508 1512 1515 1518 1521 1524 1526 1529 1531 1533 1535 1538 1539 1540 1541 1542 1543 1543 1543 1543 1542 1542 1542 1542 1541 1541
1435 1438 1441 1444 1448 1452 1456 1461 1466 1471 1475 1479 1483 1488 1492 1496 1499 1503 1506 1510 1513 1516 1519 1522 1525 1528 1530 1532 1534 1536 1538 1539 1540 1542 1543 1543 1543 1540 1540 1540 1540 1540 1539
1426 1430 1433 1437 1440 1444 1448 1453 1458 1463 1468 1473 1478 1483 1488 1491 1494 1496 1499 1503 1507 1511 1514 1518 1521 1524 1526 1528 1531 1533 1535 1536 1538 1539 1541 1541 1541 1540 1539 1538 1538 1537 1537
1418 1422 1426 1429 1432 1436 1441 1446 1451 1456 1461 1466 1470 1474 1477 1481 1484 1488 1492 1496 1501 1505 1509 1512 1516 1519 1522 1524 1527 1529 1531 1533 1534 1535 1536 1538 1538 1539 1538 1537 1535 1535 1534
1409 1413 1417 1421 1424 1429 1433 1438 1444 1449 1453 1458 1462 1466 1470 1475 1479 1484 1487 1491 1494 1498 1503 1507 1511 1514 1517 1520 1523 1525 1527 1529 1531 1532 1533 1534 1534 1535 1536 1535 1534 1533 1532
1400 1404 1409 1413 1417 1421 1426 1431 1436 1440 1445 1450 1454 1458 1463 1468 1472 1476 1480 1484 1488 1492 1496 1501 1505 1508 1512 1515 1518 1521 1523 1525 1527 1528 1529 1530 1531 1531 1532 1532 1531 1530 1529
1391 1395 1400 1404 1408 1413 1417 1422 1427 1432 1437 1442 1446 1451 1456 1461 1465 1469 1473 1477 1481 1485 1489 1494 1498 1502 1506 1510 1513 1516 1518 1520 1522 1524 1525 1526 1527 1527 1528 1528 1528 1527 1525
1382 1386 1390 1395 1400 1404 1409 1414 1419 1424 1429 1434 1439 1444 1449 1454 1458 1463 1467 1471 1475 1479 1483 1488 1492 1497 1501 1504 1508 1511 1513 1516 1518 1519 1521 1522 1522 1523 1524 1524 1524 1523 1522
1374 1378 1382 1387 1392 1396 1401 1406 1411 1417 1422 1427 1432 1437 1442 1447 1451 1456 1461 1465 1470 1474 1478 1482 1487 1491 1495 1499 1503 1506 1508 1511 1513 1515 1516 1517 1518 1519 1519 1520 1520 1520 1519
1367 1371 1375 1380 1384 1389 1395 1400 1405 1410 1415 1420 1425 1430 1435 1440 1445 1450 1455 1459 1464 1469 1473 1477 1482 1486 1490 1494 1497 1501 1503 1506 1508 1510 1511 1512 1513 1514 1515 1515 1515 1515 1515
1361 1365 1369 1374 1378 1383 1388 1394 1399 1404 1409 1414 1419 1424 1429 1434 1439 1444 1449 1454 1459 1463 1468 1472 1476 1480 1484 1488 1492 1495 1498 1501 1503 1504 1506 1507 1508 1509 1510 1510 1510 1510 1509
1356 1360 1364 1368 1373 1378 1383 1388 1393 1398 1404 1409 1413 1418 1423 1428 1433 1438 1443 1449 1454 1458 1463 1467 1471 1475 1479 1483 1487 1490 1493 1495 1497 1499 1501 1502 1503 1504 1505 1505 1505 1505 1504
1352 1356 1360 1364 1368 1373 1378 1383 1388 1393 1399 1404 1408 1413 1418 1423 1428 1433 1438 1443 1449 1453 1458 1462 1466 1471 1474 1478 1482 1485 1488 1490 1492 1494 1496 1497 1498 1499 1500 1500 1500 1499 1499
1349 1353 1357 1361 1365 1369 1374 1379 1384 1389 1394 1399 1404 1408 1413 1418 1423 1429 1434 1439 1444 1449 1453 1458 1462 1466 1470 1473 1477 1480 1483 1485 1488 1489 1491 1492 1493 1494 1494 1495 1494 1494 1494
1347 1350 1353 1357 1362 1366 1371 1376 1380 1385 1390 1395 1399 1404 1409 1415 1420 1425 1430 1435 1440 1445 1450 1454 1458 1462 1465 1469 1472 1475 1478 1480 1483 1484 1486 1487 1488 1489 1489 1490 1489 1489 1488
1345 1348 1351 1355 1359 1363 1368 1372 1377 1382 1386 1391 1396 1401 1406 1411 1416 1421 1426 1431 1436 1441 1446 1450 1454 1458 1461 1465 1468 1471 1474 1476 1478 1479 1481 1482 1483 1484 1484 1485 1484 1484 1484
1344 1346 1349 1353 1357 1361 1365 1369 1374 1379 1383 1388 1393 1398 1403 1408 1413 1418 1423 1428 1432 1437 1442 1446 1450 1454 1457 1461 1464 1467 1470 1472 1473 1475 1476 1477 1478 1479 1479 1479 1479 1479 1478
1343 1345 1348 1351 1354 1359 1363 1367 1371 1376 1380 1385 1390 1395 1400 1405 1410 1415 1420 1425 1430 1434 1439 1443 1447 1450 1454 1457 1461 1463 1466 1467 1469 1471 1472 1473 1473 1474 1474 1474 1474 1474 1473
1342 1344 1346 1349 1352 1356 1360 1364 1369 1373 1378 1383 1388 1392 1397 1402 1407 1412 1417 1422 1427 1431 1436 1440 1444 1447 1451 1454 1457 1460 1462 1463 1465 1466 1467 1468 1469 1469 1470 1470 1469 1469 1468
1340 1342 1344 1347 1350 1354 1358 1362 1366 1371 1376 1381 1386 1391 1396 1401 1406 1410 1415 1420 1425 1429 1433 1438 1441 1445 1448 1451 1454 1457 1458 1460 1461 1462 1463 1464 1465 1465 1465 1465 1465 1464 1463
1337 1339 1341 1344 1347 1351 1355 1359 1364 1369 1374 1379 1384 1389 1394 1399 1404 1409 1414 1418 1423 1427 1431 1435 1439 1442 1446 1448 1451 1453 1455 1457 1458 1459 1460 1460 1461 1461 1461 1461 1460 1460 1458
1333 1335 1337 1340 1343 1348 1352 1356 1361 1367 1372 1377 1382 1387 1392 1397 1403 1407 1412 1417 1421 1425 1429 1433 1437 1440 1443 1446 1448 1451 1453 1454 1455 1456 1457 1457 1458 1458 1457 1457 1456 1455 1454
1329 1331 1333 1336 1340 1344 1349 1353 1358 1364 1369 1375 1380 1386 1391 1396 1401 1406 1410 1415 1419 1423 1427 1431 1434 1438 1441 1443 1446 1448 1450 1451 1452 1453 1454 1454 1454 1454 1453 1453 1452 1450 1449
1325 1326 1329 1332 1336 1341 1346 1351 1356 1361 1367 1372 1378 1384 1389 1395 1400 1405 1410 1414 1418 1421 1425 1429 1432 1436 1438 1441 1443 1445 1447 1448 1449 1450 1450 1450 1450 1450 1450 1449 1448 1446 1445
1320 1322 1325 1328 1332 1337 1342 1347 1353 1359 1364 1371 1376 1382 1388 1393 1398 1403 1409 1413 1417 1421 1425 1428 1431 1434 1436 1439 1441 1443 1444 1445 1446 1447 1447 1447 1447 1447 1446 1445 1444 1442 1441
1315 1318 1321 1325 1329 1333 1339 1345 1351 1357 1362 1368 1375 1380 1386 1391 1396 1401 1407 1412 1417 1421 1424 1428 1430 1433 1436 1437 1439 1440 1442 1443 1443 1444 1444 1444 1444 1443 1442 1441 1440 1439 1437